START_TIME,STEP,MOV.,H8,t_acc.,H43,t_acc.,M25,t_acc.,H9,t_acc.
1979-02-28 15:00:18.940 ,0,0,0.,12.0,0.,12.0,0.,12.0,0.,12.0
1979-02-28 15:00:30.940 ,0,0,0.,12.0,0.,12.0,0.,12.0,0.,12.0
1979-02-28 15:00:42.940 ,1,1,0.,12.0,0.,12.0,0.,12.0,0.,12.0
1979-02-28 15:00:54.940 ,1,1,0.,12.0,0.,12.0,0.,12.0,0.,12.0
1979-02-28 15:01:06.940 ,0,1,0.,12.0,0.,12.0,0.,12.0,0.,12.0
1979-02-28 15:01:18.940 ,0,1,0.,12.0,0.,12.0,0.,12.0,0.,12.0
1979-02-28 15:01:30.940 ,0,1,0.,12.0,0.,12.0,0.,12.0,0.,12.0
1979-02-28 15:01:42.940 ,0,1,0.,12.0,0.,12.0,0.,12.0,0.,12.0
1979-02-28 15:01:54.940 ,1,1,0.,12.0,0.,12.0,0.,12.0,0.,12.0
1979-02-28 15:02:06.940 ,1,1,0.,12.0,0.,12.0,0.,12.0,0.,12.0
1979-02-28 15:02:18.940 ,2,1,0.,12.0,0.,12.0,0.,12.0,0.,12.0
1979-02-28 15:02:30.940 ,2,1,0.,12.0,0.,12.0,0.,12.0,0.,12.0
1979-02-28 15:02:42.940 ,3,1,0.,12.0,0.,12.0,0.,12.0,0.,12.0
1979-02-28 15:02:54.940 ,3,1,0.,12.0,0.,12.0,0.,12.0,0.,12.0
1979-02-28 15:03:06.940 ,4,1,0.,12.0,0.,12.0,0.,12.0,0.,12.0
1979-02-28 15:03:18.940 ,4,1,0.,12.0,0.,12.0,0.,12.0,0.,12.0
1979-02-28 15:03:30.940 ,5,1,0.,12.0,0.,12.0,0.,12.0,0.,12.0
1979-02-28 15:03:42.940 ,5,1,0.,12.0,0.,12.0,0.,12.0,0.,12.0
1979-02-28 15:03:54.940 ,6,1,0.,12.0,0.,12.0,0.,12.0,0.,12.0
1979-02-28 15:04:06.940 ,6,1,0.,12.0,0.,12.0,0.,12.0,0.,12.0
1979-02-28 15:04:18.940 ,7,1,0.,12.0,0.,12.0,0.,12.0,0.,12.0
1979-02-28 15:04:30.940 ,7,1,0.,12.0,0.,12.0,0.,12.0,0.,12.0
1979-02-28 15:04:42.940 ,7,1,0.,12.0,0.,12.0,0.,12.0,0.,12.0
1979-02-28 15:04:54.940 ,7,1,0.,12.0,0.,12.0,0.,12.0,0.,12.0
1979-02-28 15:05:06.940 ,6,1,0.,12.0,0.,12.0,0.,12.0,0.,12.0
1979-02-28 15:05:18.940 ,6,1,0.,12.0,0.,12.0,0.,12.0,0.,12.0
1979-02-28 15:05:30.940 ,5,1,0.,12.0,0.,12.0,0.,12.0,0.,12.0
1979-02-28 15:05:42.940 ,5,1,0.,12.0,0.,12.0,0.,12.0,0.,12.0
1979-02-28 15:05:54.940 ,4,1,0.,12.0,0.,12.0,0.,12.0,0.,12.0
1979-02-28 15:06:06.940 ,4,1,0.,12.0,0.,12.0,0.,12.0,0.,12.0
1979-02-28 15:06:18.940 ,3,1,0.,12.0,0.,12.0,0.,12.0,0.,12.0
1979-02-28 15:06:30.940 ,3,1,0.,12.0,0.,12.0,0.,12.0,0.,12.0
1979-02-28 15:06:42.940 ,2,1,0.,12.0,0.,12.0,0.,12.0,0.,12.0
1979-02-28 15:06:54.940 ,2,1,0.,12.0,0.,12.0,0.,12.0,0.,12.0
1979-02-28 15:07:06.940 ,1,1,0.,12.0,0.,12.0,0.,12.0,0.,12.0
1979-02-28 15:07:18.940 ,1,1,0.,12.0,0.,12.0,0.,12.0,0.,12.0
1979-02-28 15:07:30.940 ,0,1,0.,12.0,0.,12.0,0.,12.0,0.,12.0
1979-02-28 15:07:42.940 ,0,1,0.,12.0,0.,12.0,0.,12.0,0.,12.0
1979-02-28 15:07:54.940 ,0,1,0.,12.0,0.,12.0,0.,12.0,0.,12.0
1979-02-28 15:08:06.940 ,0,1,0.,12.0,0.,12.0,0.,12.0,0.,12.0
1979-02-28 15:08:18.940 ,1,1,0.,12.0,0.,12.0,0.,12.0,0.,12.0
1979-02-28 15:08:30.940 ,1,1,0.,12.0,0.,12.0,0.,12.0,0.,12.0
1979-02-28 15:08:42.940 ,2,1,0.,12.0,0.,12.0,0.,12.0,0.,12.0
1979-02-28 15:08:54.940 ,2,1,0.,12.0,0.,12.0,0.,12.0,0.,12.0
1979-02-28 15:09:06.940 ,3,1,0.,12.0,0.,12.0,0.,12.0,0.,12.0
1979-02-28 15:09:18.940 ,3,1,0.,12.0,0.,12.0,0.,12.0,0.,12.0
1979-02-28 15:09:30.940 ,4,1,0.,12.0,0.,12.0,0.,12.0,0.,12.0
1979-02-28 15:09:42.940 ,4,1,0.,12.0,0.,12.0,0.,12.0,0.,12.0
1979-02-28 15:09:54.940 ,5,1,0.,12.0,0.,12.0,0.,12.0,0.,12.0
1979-02-28 15:10:06.940 ,5,1,0.,12.0,0.,12.0,0.,12.0,0.,12.0
1979-02-28 15:10:18.940 ,6,1,0.,12.0,0.,12.0,0.,12.0,0.,12.0
1979-02-28 15:10:30.940 ,6,1,0.,12.0,0.,12.0,0.,12.0,0.,12.0
1979-02-28 15:10:42.940 ,7,1,0.,12.0,0.,12.0,0.,12.0,0.,12.0
1979-02-28 15:10:54.940 ,7,1,0.,12.0,0.,12.0,0.,12.0,0.,12.0
1979-02-28 15:11:06.940 ,7,1,0.,12.0,0.,12.0,0.,12.0,0.,12.0
1979-02-28 15:11:18.940 ,7,1,0.,12.0,0.,12.0,0.,12.0,0.,12.0
1979-02-28 15:11:30.940 ,6,1,0.,12.0,0.,12.0,0.,12.0,0.,12.0
1979-02-28 15:11:42.940 ,6,1,0.,12.0,0.,12.0,0.,12.0,0.,12.0
1979-02-28 15:11:54.940 ,5,1,0.,12.0,0.,12.0,0.,12.0,0.,12.0
1979-02-28 15:12:06.940 ,5,1,0.,12.0,0.,12.0,0.,12.0,0.,12.0
1979-02-28 15:12:18.940 ,4,1,0.,12.0,0.,12.0,0.,12.0,0.,12.0
1979-02-28 15:12:30.940 ,4,1,0.,12.0,0.,12.0,0.,12.0,0.,12.0
1979-02-28 15:12:42.940 ,3,1,0.,12.0,0.,12.0,0.,12.0,0.,12.0
1979-02-28 15:12:54.940 ,3,1,0.,12.0,0.,12.0,0.,12.0,0.,12.0
1979-02-28 15:13:06.940 ,2,1,0.,12.0,0.,12.0,0.,12.0,0.,12.0
1979-02-28 15:13:18.940 ,2,1,0.,12.0,0.,12.0,0.,12.0,0.,12.0
1979-02-28 15:13:30.940 ,1,1,0.,12.0,0.,12.0,0.,12.0,0.,12.0
1979-02-28 15:13:42.940 ,1,1,0.,12.0,0.,12.0,0.,12.0,0.,12.0
1979-02-28 15:13:54.940 ,0,1,0.,12.0,0.,12.0,0.,12.0,0.,12.0
1979-02-28 15:14:06.940 ,0,1,0.,12.0,0.,12.0,0.,12.0,0.,12.0
1979-02-28 15:14:18.940 ,0,1,0.,12.0,0.,12.0,0.,12.0,0.,12.0
1979-02-28 15:14:30.940 ,0,1,0.,12.0,0.,12.0,0.,12.0,0.,12.0
1979-02-28 15:14:42.940 ,1,1,0.,12.0,0.,12.0,0.,12.0,0.,12.0
1979-02-28 15:14:54.940 ,1,1,0.,12.0,0.,12.0,0.,12.0,0.,12.0
1979-02-28 15:15:06.940 ,2,1,0.,12.0,0.,12.0,0.,12.0,0.,12.0
1979-02-28 15:15:18.940 ,2,1,0.,12.0,0.,12.0,0.,12.0,0.,12.0
1979-02-28 15:15:30.940 ,3,1,0.,12.0,0.,12.0,0.,12.0,0.,12.0
1979-02-28 15:15:42.940 ,3,1,0.,12.0,0.,12.0,0.,12.0,0.,12.0
1979-02-28 15:15:54.940 ,4,1,0.,12.0,0.,12.0,0.,12.0,0.,12.0
1979-02-28 15:16:06.940 ,4,1,0.,12.0,0.,12.0,0.,12.0,0.,12.0
1979-02-28 15:16:18.940 ,5,1,0.,12.0,0.,12.0,0.,12.0,0.,12.0
1979-02-28 15:16:30.940 ,5,1,0.,12.0,0.,12.0,0.,12.0,0.,12.0
1979-02-28 15:16:42.940 ,6,1,0.,12.0,0.,12.0,0.,12.0,0.,12.0
1979-02-28 15:16:54.940 ,6,1,0.,12.0,0.,12.0,0.,12.0,0.,12.0
1979-02-28 15:17:06.940 ,7,1,0.,12.0,0.,12.0,0.,12.0,0.,12.0
1979-02-28 15:17:18.940 ,7,1,0.,12.0,0.,12.0,0.,12.0,0.,12.0
1979-02-28 15:17:30.940 ,7,1,0.,12.0,0.,12.0,0.,12.0,0.,12.0
1979-02-28 15:17:42.940 ,7,1,0.,12.0,0.,12.0,0.,12.0,0.,12.0
1979-02-28 15:17:54.940 ,6,1,0.,12.0,0.,12.0,0.,12.0,0.,12.0
1979-02-28 15:18:06.940 ,6,1,0.,12.0,0.,12.0,0.,12.0,0.,12.0
1979-02-28 15:18:18.940 ,5,1,0.,12.0,0.,12.0,0.,12.0,0.,12.0
1979-02-28 15:18:30.940 ,5,1,0.,12.0,0.,12.0,0.,12.0,0.,12.0
1979-02-28 15:18:42.940 ,4,1,0.,12.0,0.,12.0,0.,12.0,0.,12.0
1979-02-28 15:18:54.940 ,4,1,0.,12.0,0.,12.0,0.,12.0,0.,12.0
1979-02-28 15:19:06.940 ,3,1,0.,12.0,0.,12.0,0.,12.0,0.,12.0
1979-02-28 15:19:18.940 ,3,1,0.,12.0,0.,12.0,0.,12.0,0.,12.0
1979-02-28 15:19:30.940 ,2,1,0.,12.0,0.,12.0,0.,12.0,0.,12.0
1979-02-28 15:19:42.940 ,2,1,0.,12.0,0.,12.0,0.,12.0,0.,12.0
1979-02-28 15:19:54.940 ,1,1,0.,12.0,0.,12.0,0.,12.0,0.,12.0
1979-02-28 15:20:06.940 ,1,1,0.,12.0,0.,12.0,0.,12.0,0.,12.0
1979-02-28 15:20:18.940 ,0,1,0.,12.0,0.,12.0,0.,12.0,0.,12.0
1979-02-28 15:20:30.940 ,0,1,0.,12.0,0.,12.0,0.,12.0,0.,12.0
1979-02-28 15:20:42.940 ,0,1,0.,12.0,0.,12.0,0.,12.0,0.,12.0
1979-02-28 15:20:54.940 ,0,1,0.,12.0,0.,12.0,0.,12.0,0.,12.0
1979-02-28 15:21:06.940 ,1,1,0.,12.0,0.,12.0,0.,12.0,0.,12.0
1979-02-28 15:21:18.940 ,1,1,1.,12.0,0.,12.0,0.,12.0,0.,12.0
1979-02-28 15:21:30.940 ,2,1,0.,12.0,0.,12.0,0.,12.0,0.,12.0
1979-02-28 15:21:42.940 ,2,1,0.,12.0,0.,12.0,0.,12.0,0.,12.0
1979-02-28 15:21:54.940 ,3,1,0.,12.0,0.,12.0,0.,12.0,0.,12.0
1979-02-28 15:22:06.940 ,3,1,0.,12.0,0.,12.0,0.,12.0,0.,12.0
1979-02-28 15:22:18.940 ,4,1,0.,12.0,0.,12.0,0.,12.0,0.,12.0
1979-02-28 15:22:30.940 ,4,1,0.,12.0,0.,12.0,0.,12.0,0.,12.0
1979-02-28 15:22:42.940 ,5,1,0.,12.0,0.,12.0,0.,12.0,0.,12.0
1979-02-28 15:22:54.940 ,5,1,0.,12.0,0.,12.0,0.,12.0,0.,12.0
1979-02-28 15:23:06.940 ,6,1,0.,12.0,0.,12.0,0.,12.0,0.,12.0
1979-02-28 15:23:18.940 ,6,1,0.,12.0,0.,12.0,0.,12.0,0.,12.0
1979-02-28 15:23:30.940 ,7,1,0.,12.0,0.,12.0,0.,12.0,0.,12.0
1979-02-28 15:23:42.940 ,7,1,0.,12.0,0.,12.0,0.,12.0,0.,12.0
1979-02-28 15:23:54.940 ,7,1,0.,12.0,0.,12.0,0.,12.0,0.,12.0
1979-02-28 15:24:06.940 ,7,1,0.,12.0,0.,12.0,0.,12.0,0.,12.0
1979-02-28 15:24:18.940 ,6,1,0.,12.0,0.,12.0,0.,12.0,0.,12.0
1979-02-28 15:24:30.940 ,6,1,0.,12.0,0.,12.0,0.,12.0,0.,12.0
1979-02-28 15:24:42.940 ,5,1,0.,12.0,0.,12.0,0.,12.0,0.,12.0
1979-02-28 15:24:54.940 ,5,1,0.,12.0,0.,12.0,0.,12.0,0.,12.0
1979-02-28 15:25:06.940 ,4,1,0.,12.0,0.,12.0,0.,12.0,0.,12.0
1979-02-28 15:25:18.940 ,4,1,0.,12.0,0.,12.0,0.,12.0,0.,12.0
1979-02-28 15:25:30.940 ,3,1,0.,12.0,0.,12.0,0.,12.0,0.,12.0
1979-02-28 15:25:42.940 ,3,1,0.,12.0,0.,12.0,0.,12.0,0.,12.0
1979-02-28 15:25:54.940 ,2,1,0.,12.0,0.,12.0,0.,12.0,0.,12.0
1979-02-28 15:26:06.940 ,2,1,0.,12.0,0.,12.0,0.,12.0,0.,12.0
1979-02-28 15:26:18.940 ,1,1,0.,12.0,0.,12.0,0.,12.0,0.,12.0
1979-02-28 15:26:30.940 ,1,1,0.,12.0,0.,12.0,0.,12.0,0.,12.0
1979-02-28 15:26:42.940 ,0,1,0.,12.0,0.,12.0,0.,12.0,0.,12.0
1979-02-28 15:26:54.940 ,0,1,0.,12.0,0.,12.0,0.,12.0,0.,12.0
1979-02-28 15:27:06.940 ,0,1,0.,12.0,0.,12.0,0.,12.0,0.,12.0
1979-02-28 15:27:18.940 ,0,1,0.,12.0,0.,12.0,0.,12.0,0.,12.0
1979-02-28 15:27:30.940 ,1,1,0.,12.0,0.,12.0,0.,12.0,0.,12.0
1979-02-28 15:27:42.940 ,1,1,0.,12.0,0.,12.0,0.,12.0,0.,12.0
1979-02-28 15:27:54.940 ,2,1,0.,12.0,0.,12.0,0.,12.0,0.,12.0
1979-02-28 15:28:06.940 ,2,1,0.,12.0,0.,12.0,0.,12.0,0.,12.0
1979-02-28 15:28:18.940 ,3,1,0.,12.0,0.,12.0,0.,12.0,0.,12.0
1979-02-28 15:28:30.940 ,3,1,0.,12.0,0.,12.0,0.,12.0,0.,12.0
1979-02-28 15:28:42.940 ,4,1,0.,12.0,0.,12.0,0.,12.0,0.,12.0
1979-02-28 15:28:54.940 ,4,1,0.,12.0,0.,12.0,0.,12.0,0.,12.0
1979-02-28 15:29:06.940 ,5,1,0.,12.0,0.,12.0,0.,12.0,0.,12.0
1979-02-28 15:29:18.940 ,5,1,0.,12.0,0.,12.0,0.,12.0,0.,12.0
1979-02-28 15:29:30.940 ,6,1,0.,12.0,0.,12.0,0.,12.0,0.,12.0
1979-02-28 15:29:42.940 ,6,1,0.,12.0,0.,12.0,0.,12.0,0.,12.0
1979-02-28 15:29:54.940 ,7,1,0.,12.0,0.,12.0,0.,12.0,0.,12.0
1979-02-28 15:30:06.940 ,7,1,0.,12.0,0.,12.0,0.,12.0,0.,12.0
1979-02-28 15:30:18.940 ,7,1,0.,12.0,0.,12.0,0.,12.0,0.,12.0
1979-02-28 15:30:30.940 ,7,1,0.,12.0,0.,12.0,0.,12.0,0.,12.0
1979-02-28 15:30:42.940 ,6,1,0.,12.0,0.,12.0,0.,12.0,0.,12.0
1979-02-28 15:30:54.940 ,6,1,0.,12.0,0.,12.0,0.,12.0,0.,12.0
1979-02-28 15:31:06.940 ,5,1,0.,12.0,0.,12.0,0.,12.0,0.,12.0
1979-02-28 15:31:18.940 ,5,1,0.,12.0,0.,12.0,0.,12.0,0.,12.0
1979-02-28 15:31:30.940 ,4,1,0.,12.0,0.,12.0,0.,12.0,0.,12.0
1979-02-28 15:31:42.940 ,4,1,0.,12.0,0.,12.0,0.,12.0,0.,12.0
1979-02-28 15:31:54.940 ,3,1,0.,12.0,0.,12.0,0.,12.0,0.,12.0
1979-02-28 15:32:06.940 ,3,1,0.,12.0,0.,12.0,0.,12.0,0.,12.0
1979-02-28 15:32:18.940 ,2,1,0.,12.0,0.,12.0,0.,12.0,0.,12.0
1979-02-28 15:32:30.940 ,2,1,0.,12.0,0.,12.0,0.,12.0,0.,12.0
1979-02-28 15:32:42.940 ,1,1,0.,12.0,0.,12.0,0.,12.0,0.,12.0
1979-02-28 15:32:54.940 ,1,1,0.,12.0,0.,12.0,0.,12.0,0.,12.0
1979-02-28 15:33:06.940 ,0,1,0.,12.0,0.,12.0,0.,12.0,0.,12.0
1979-02-28 15:33:18.940 ,0,1,0.,12.0,0.,12.0,0.,12.0,0.,12.0
1979-02-28 15:33:30.940 ,0,1,0.,12.0,0.,12.0,0.,12.0,0.,12.0
1979-02-28 15:33:42.940 ,0,1,0.,12.0,0.,12.0,0.,12.0,0.,12.0
1979-02-28 15:33:54.940 ,1,1,0.,12.0,0.,12.0,0.,12.0,0.,12.0
1979-02-28 15:34:06.940 ,1,1,0.,12.0,0.,12.0,0.,12.0,0.,12.0
1979-02-28 15:34:18.940 ,2,1,0.,12.0,0.,12.0,0.,12.0,0.,12.0
1979-02-28 15:34:30.940 ,2,1,0.,12.0,0.,12.0,0.,12.0,0.,12.0
1979-02-28 15:34:42.940 ,3,1,0.,12.0,0.,12.0,0.,12.0,0.,12.0
1979-02-28 15:34:54.940 ,3,1,0.,12.0,0.,12.0,0.,12.0,0.,12.0
1979-02-28 15:35:06.940 ,4,1,0.,12.0,0.,12.0,0.,12.0,0.,12.0
1979-02-28 15:35:18.940 ,4,1,0.,12.0,0.,12.0,0.,12.0,0.,12.0
1979-02-28 15:35:30.940 ,0,0,0.,12.0,0.,12.0,0.,12.0,0.,12.0
1979-02-28 15:35:42.940 ,0,0,0.,12.0,0.,12.0,0.,12.0,0.,12.0
1979-02-28 15:35:54.940 ,0,0,0.,12.0,0.,12.0,0.,12.0,0.,12.0
1979-02-28 15:36:06.940 ,0,0,0.,12.0,0.,12.0,0.,12.0,0.,12.0
1979-02-28 15:36:18.940 ,7,1,0.,12.0,0.,12.0,0.,12.0,0.,12.0
1979-02-28 15:36:30.940 ,7,1,0.,12.0,0.,12.0,0.,12.0,0.,12.0
1979-02-28 15:36:42.940 ,7,1,0.,12.0,0.,12.0,0.,12.0,0.,12.0
1979-02-28 15:36:54.940 ,7,1,0.,12.0,0.,12.0,0.,12.0,0.,12.0
1979-02-28 15:37:06.940 ,6,1,0.,12.0,0.,12.0,0.,12.0,0.,12.0
1979-02-28 15:37:18.940 ,6,1,0.,12.0,0.,12.0,0.,12.0,0.,12.0
1979-02-28 15:37:30.940 ,5,1,0.,12.0,0.,12.0,0.,12.0,0.,12.0
1979-02-28 15:37:42.940 ,5,1,0.,12.0,0.,12.0,0.,12.0,0.,12.0
1979-02-28 15:37:54.940 ,4,1,0.,12.0,0.,12.0,0.,12.0,0.,12.0
1979-02-28 15:38:06.940 ,4,1,0.,12.0,0.,12.0,0.,12.0,0.,12.0
1979-02-28 15:38:18.940 ,0,0,0.,12.0,0.,12.0,0.,12.0,0.,12.0
1979-02-28 15:38:30.940 ,0,0,0.,12.0,0.,12.0,0.,12.0,0.,12.0
1979-02-28 15:38:42.940 ,0,0,,0,,0,,0,,0
1979-02-28 15:38:54.940 ,0,0,,0,,0,,0,,0
1979-02-28 15:42:42.940 ,0,0,0.,12.0,0.,12.0,0.,12.0,0.,12.0
1979-02-28 15:42:54.940 ,0,0,0.,12.0,0.,12.0,0.,12.0,0.,12.0
1979-02-28 15:43:06.940 ,7,1,0.,12.0,0.,12.0,0.,12.0,0.,12.0
1979-02-28 15:43:18.940 ,7,1,0.,12.0,0.,12.0,0.,12.0,0.,12.0
1979-02-28 15:43:30.940 ,6,1,0.,12.0,0.,12.0,0.,12.0,0.,12.0
1979-02-28 15:43:42.940 ,6,1,0.,12.0,0.,12.0,0.,12.0,0.,12.0
1979-02-28 15:43:54.940 ,5,1,0.,12.0,0.,12.0,0.,12.0,0.,12.0
1979-02-28 15:44:06.940 ,5,1,0.,12.0,0.,12.0,0.,12.0,0.,12.0
1979-02-28 15:44:18.940 ,4,1,0.,12.0,0.,12.0,0.,12.0,0.,12.0
1979-02-28 15:44:30.940 ,4,1,0.,12.0,0.,12.0,0.,12.0,0.,12.0
1979-02-28 15:44:42.940 ,3,1,0.,12.0,0.,12.0,0.,12.0,0.,12.0
1979-02-28 15:44:54.940 ,3,1,0.,12.0,0.,12.0,0.,12.0,0.,12.0
1979-02-28 15:45:06.940 ,2,1,0.,12.0,0.,12.0,0.,12.0,0.,12.0
1979-02-28 15:45:18.940 ,2,1,0.,12.0,0.,12.0,0.,12.0,0.,12.0
1979-02-28 15:45:30.940 ,1,1,0.,12.0,0.,12.0,0.,12.0,0.,12.0
1979-02-28 15:45:42.940 ,1,1,0.,12.0,0.,12.0,0.,12.0,0.,12.0
1979-02-28 15:45:54.940 ,0,1,0.,12.0,0.,12.0,0.,12.0,0.,12.0
1979-02-28 15:46:06.940 ,0,1,0.,12.0,0.,12.0,0.,12.0,0.,12.0
1979-02-28 15:46:18.940 ,0,1,0.,12.0,0.,12.0,0.,12.0,0.,12.0
1979-02-28 15:46:30.940 ,0,1,0.,12.0,0.,12.0,0.,12.0,0.,12.0
1979-02-28 15:46:42.940 ,1,1,0.,12.0,0.,12.0,0.,12.0,0.,12.0
1979-02-28 15:46:54.940 ,1,1,0.,12.0,0.,12.0,0.,12.0,0.,12.0
1979-02-28 15:47:06.940 ,2,1,0.,12.0,0.,12.0,0.,12.0,0.,12.0
1979-02-28 15:47:18.940 ,2,1,0.,12.0,0.,12.0,0.,12.0,0.,12.0
1979-02-28 15:47:30.940 ,3,1,1.,12.0,0.,12.0,0.,12.0,0.,12.0
1979-02-28 15:47:42.940 ,3,1,0.,12.0,0.,12.0,0.,12.0,0.,12.0
1979-02-28 15:47:54.940 ,4,1,0.,12.0,0.,12.0,0.,12.0,0.,12.0
1979-02-28 15:48:06.940 ,4,1,0.,12.0,0.,12.0,0.,12.0,0.,12.0
1979-02-28 15:48:18.940 ,5,1,0.,12.0,0.,12.0,0.,12.0,0.,12.0
1979-02-28 15:48:30.940 ,5,1,0.,12.0,0.,12.0,0.,12.0,0.,12.0
1979-02-28 15:48:42.940 ,6,1,0.,12.0,0.,12.0,0.,12.0,0.,12.0
1979-02-28 15:48:54.940 ,6,1,0.,12.0,0.,12.0,0.,12.0,0.,12.0
1979-02-28 15:49:06.940 ,7,1,0.,12.0,0.,12.0,0.,12.0,0.,12.0
1979-02-28 15:49:18.940 ,7,1,0.,12.0,0.,12.0,0.,12.0,0.,12.0
1979-02-28 15:50:18.940 ,0,0,0.,12.0,0.,12.0,0.,12.0,0.,12.0
1979-02-28 15:50:30.940 ,0,0,0.,12.0,0.,12.0,0.,12.0,0.,12.0
1979-02-28 15:50:42.940 ,4,1,0.,12.0,0.,12.0,0.,12.0,0.,12.0
1979-02-28 15:50:54.940 ,4,1,0.,12.0,0.,12.0,0.,12.0,0.,12.0
1979-02-28 15:51:06.940 ,3,1,0.,12.0,0.,12.0,0.,12.0,0.,12.0
1979-02-28 15:51:18.940 ,3,1,0.,12.0,0.,12.0,0.,12.0,0.,12.0
1979-02-28 15:51:30.940 ,2,1,0.,12.0,0.,12.0,0.,12.0,0.,12.0
1979-02-28 15:51:42.940 ,2,1,0.,12.0,0.,12.0,0.,12.0,0.,12.0
1979-02-28 15:51:54.940 ,1,1,0.,12.0,0.,12.0,0.,12.0,0.,12.0
1979-02-28 15:52:06.940 ,1,1,0.,12.0,0.,12.0,0.,12.0,0.,12.0
1979-02-28 15:52:18.940 ,0,1,0.,12.0,0.,12.0,0.,12.0,0.,12.0
1979-02-28 15:52:30.940 ,0,1,0.,12.0,0.,12.0,0.,12.0,0.,12.0
1979-02-28 15:52:42.940 ,0,0,0.,12.0,0.,12.0,0.,12.0,0.,12.0
1979-02-28 15:52:54.940 ,0,0,,0,,0,,0,,0
1979-02-28 15:53:06.940 ,1,1,0.,12.0,0.,12.0,0.,12.0,0.,12.0
1979-02-28 15:53:18.940 ,1,1,0.,12.0,0.,12.0,0.,12.0,0.,12.0
1979-02-28 15:53:30.940 ,2,1,0.,12.0,0.,12.0,0.,12.0,0.,12.0
1979-02-28 15:53:42.940 ,2,1,0.,12.0,0.,12.0,0.,12.0,0.,12.0
1979-02-28 15:53:54.940 ,3,1,0.,12.0,0.,12.0,0.,12.0,0.,12.0
1979-02-28 15:54:06.940 ,3,1,0.,12.0,0.,12.0,0.,12.0,0.,12.0
1979-02-28 15:54:18.940 ,4,1,0.,12.0,0.,12.0,0.,12.0,0.,12.0
1979-02-28 15:54:30.940 ,4,1,0.,12.0,0.,12.0,0.,12.0,0.,12.0
1979-02-28 15:54:42.940 ,5,1,0.,12.0,0.,12.0,0.,12.0,0.,12.0
1979-02-28 15:54:54.940 ,5,1,0.,12.0,0.,12.0,0.,12.0,0.,12.0
1979-02-28 15:55:06.940 ,6,1,0.,12.0,0.,12.0,0.,12.0,0.,12.0
1979-02-28 15:55:18.940 ,6,1,0.,12.0,0.,12.0,0.,12.0,0.,12.0
1979-02-28 15:55:30.940 ,7,1,0.,12.0,0.,12.0,0.,12.0,0.,12.0
1979-02-28 15:55:42.940 ,7,1,0.,12.0,0.,12.0,0.,12.0,0.,12.0
1979-02-28 15:55:54.940 ,7,1,0.,12.0,0.,12.0,0.,12.0,0.,12.0
1979-02-28 15:56:06.940 ,7,1,0.,12.0,0.,12.0,0.,12.0,0.,12.0
1979-02-28 15:56:18.940 ,6,1,0.,12.0,0.,12.0,0.,12.0,0.,12.0
1979-02-28 15:56:30.940 ,6,1,0.,12.0,0.,12.0,0.,12.0,0.,12.0
1979-02-28 15:56:42.940 ,5,1,0.,12.0,0.,12.0,0.,12.0,0.,12.0
1979-02-28 15:56:54.940 ,5,1,0.,12.0,0.,12.0,0.,12.0,0.,12.0
1979-02-28 15:57:06.940 ,4,1,1.,12.0,0.,12.0,0.,12.0,0.,12.0
1979-02-28 15:57:18.940 ,4,1,0.,12.0,0.,12.0,0.,12.0,0.,12.0
1979-02-28 15:57:30.940 ,3,1,0.,12.0,0.,12.0,0.,12.0,0.,12.0
1979-02-28 15:57:42.940 ,3,1,0.,12.0,0.,12.0,0.,12.0,0.,12.0
1979-02-28 15:57:54.940 ,2,1,0.,12.0,0.,12.0,0.,12.0,0.,12.0
1979-02-28 15:58:06.940 ,2,1,0.,12.0,0.,12.0,0.,12.0,0.,12.0
1979-02-28 15:58:18.940 ,1,1,0.,12.0,0.,12.0,0.,12.0,0.,12.0
1979-02-28 15:58:30.940 ,1,1,0.,12.0,0.,12.0,0.,12.0,0.,12.0
1979-02-28 15:58:42.940 ,0,0,0.,12.0,0.,12.0,0.,12.0,0.,12.0
1979-02-28 15:58:54.940 ,0,0,0.,12.0,0.,12.0,0.,12.0,0.,12.0
1979-02-28 15:59:16.540 ,0,0,,0,,0,,0,,0
1979-02-28 15:59:28.540 ,0,0,0.,12.0,0.,12.0,0.,12.0,0.,12.0
1979-02-28 15:59:30.940 ,1,1,0.,12.0,0.,12.0,0.,12.0,0.,12.0
1979-02-28 15:59:42.940 ,1,1,0.,12.0,0.,12.0,0.,12.0,0.,12.0
1979-02-28 15:59:54.940 ,2,1,0.,12.0,0.,12.0,0.,12.0,0.,12.0
1979-02-28 16:00:06.940 ,2,1,0.,12.0,0.,12.0,0.,12.0,0.,12.0
1979-02-28 16:00:18.940 ,3,1,0.,12.0,0.,12.0,0.,12.0,0.,12.0
1979-02-28 16:00:30.940 ,3,1,0.,12.0,0.,12.0,0.,12.0,0.,12.0
1979-02-28 16:01:30.940 ,0,0,0.,12.0,0.,12.0,0.,12.0,0.,12.0
1979-02-28 16:01:42.940 ,0,0,0.,12.0,0.,12.0,0.,12.0,0.,12.0
1979-02-28 16:01:54.940 ,7,1,0.,12.0,0.,12.0,0.,12.0,0.,12.0
1979-02-28 16:02:06.940 ,7,1,0.,12.0,0.,12.0,0.,12.0,0.,12.0
1979-02-28 16:02:18.940 ,7,1,0.,12.0,0.,12.0,0.,12.0,0.,12.0
1979-02-28 16:02:30.940 ,7,1,0.,12.0,0.,12.0,0.,12.0,0.,12.0
1979-02-28 16:02:42.940 ,6,1,0.,12.0,0.,12.0,0.,12.0,0.,12.0
1979-02-28 16:02:54.940 ,6,1,0.,12.0,0.,12.0,0.,12.0,0.,12.0
1979-02-28 16:03:06.940 ,5,1,0.,12.0,0.,12.0,0.,12.0,0.,12.0
1979-02-28 16:03:18.940 ,5,1,0.,12.0,0.,12.0,0.,12.0,0.,12.0
1979-02-28 16:03:30.940 ,4,1,0.,12.0,0.,12.0,0.,12.0,0.,12.0
1979-02-28 16:03:42.940 ,4,1,0.,12.0,0.,12.0,0.,12.0,0.,12.0
1979-02-28 16:03:54.940 ,3,1,0.,12.0,0.,12.0,0.,12.0,0.,12.0
1979-02-28 16:04:06.940 ,3,1,0.,12.0,0.,12.0,0.,12.0,0.,12.0
1979-02-28 16:04:18.940 ,2,1,0.,12.0,0.,12.0,0.,12.0,0.,12.0
1979-02-28 16:04:30.940 ,2,1,0.,12.0,0.,12.0,0.,12.0,0.,12.0
1979-02-28 16:04:42.940 ,1,1,0.,12.0,0.,12.0,0.,12.0,0.,12.0
1979-02-28 16:04:54.940 ,1,1,0.,12.0,0.,12.0,0.,12.0,0.,12.0
1979-02-28 16:05:06.940 ,0,0,0.,12.0,0.,12.0,0.,12.0,0.,12.0
1979-02-28 16:05:18.940 ,0,0,0.,12.0,0.,12.0,0.,12.0,0.,12.0
1979-02-28 16:05:30.940 ,0,1,0.,12.0,0.,12.0,0.,12.0,0.,12.0
1979-02-28 16:05:42.940 ,0,1,0.,12.0,0.,12.0,0.,12.0,0.,12.0
1979-02-28 16:05:54.940 ,1,1,0.,12.0,0.,12.0,0.,12.0,0.,12.0
1979-02-28 16:06:06.940 ,1,1,0.,12.0,0.,12.0,0.,12.0,0.,12.0
1979-02-28 16:06:18.940 ,2,1,0.,12.0,0.,12.0,0.,12.0,0.,12.0
1979-02-28 16:06:30.940 ,2,1,0.,12.0,0.,12.0,0.,12.0,0.,12.0
1979-02-28 16:06:42.940 ,3,1,0.,12.0,0.,12.0,0.,12.0,0.,12.0
1979-02-28 16:06:54.940 ,3,1,0.,12.0,0.,12.0,0.,12.0,0.,12.0
1979-02-28 16:07:06.940 ,4,1,0.,12.0,0.,12.0,0.,12.0,0.,12.0
1979-02-28 16:07:18.940 ,4,1,0.,12.0,0.,12.0,0.,12.0,0.,12.0
1979-02-28 16:07:30.940 ,5,1,0.,12.0,0.,12.0,0.,12.0,0.,12.0
1979-02-28 16:07:42.940 ,5,1,0.,12.0,0.,12.0,0.,12.0,0.,12.0
1979-02-28 16:07:54.940 ,6,1,0.,12.0,0.,12.0,0.,12.0,0.,12.0
1979-02-28 16:08:06.940 ,6,1,0.,12.0,0.,12.0,0.,12.0,0.,12.0
1979-02-28 16:08:18.940 ,7,1,0.,12.0,0.,12.0,0.,12.0,0.,12.0
1979-02-28 16:08:30.940 ,7,1,0.,12.0,0.,12.0,0.,12.0,0.,12.0
1979-02-28 16:08:42.940 ,7,1,0.,12.0,0.,12.0,0.,12.0,0.,12.0
1979-02-28 16:08:54.940 ,7,1,0.,12.0,0.,12.0,0.,12.0,0.,12.0
1979-02-28 16:09:06.940 ,6,1,0.,12.0,0.,12.0,0.,12.0,0.,12.0
1979-02-28 16:09:18.940 ,6,1,0.,12.0,0.,12.0,0.,12.0,0.,12.0
1979-02-28 16:09:30.940 ,5,1,0.,12.0,0.,12.0,0.,12.0,0.,12.0
1979-02-28 16:09:42.940 ,5,1,0.,12.0,0.,12.0,0.,12.0,0.,12.0
1979-02-28 16:09:54.940 ,4,1,0.,12.0,0.,12.0,0.,12.0,0.,12.0
1979-02-28 16:10:06.940 ,4,1,0.,12.0,0.,12.0,0.,12.0,0.,12.0
1979-02-28 16:10:18.940 ,3,1,0.,12.0,0.,12.0,0.,12.0,0.,12.0
1979-02-28 16:10:30.940 ,3,1,0.,12.0,0.,12.0,0.,12.0,0.,12.0
1979-02-28 16:10:42.940 ,2,1,1.,12.0,0.,12.0,0.,12.0,0.,12.0
1979-02-28 16:10:54.940 ,2,1,0.,12.0,0.,12.0,0.,12.0,0.,12.0
1979-02-28 16:11:06.940 ,1,1,0.,12.0,0.,12.0,0.,12.0,0.,12.0
1979-02-28 16:11:18.940 ,1,1,0.,12.0,0.,12.0,0.,12.0,0.,12.0
1979-02-28 16:11:30.940 ,0,1,0.,12.0,0.,12.0,0.,12.0,0.,12.0
1979-02-28 16:11:42.940 ,0,1,0.,12.0,0.,12.0,0.,12.0,0.,12.0
1979-02-28 16:11:54.940 ,0,1,0.,12.0,0.,12.0,0.,12.0,0.,12.0
1979-02-28 16:12:06.940 ,0,1,0.,12.0,0.,12.0,0.,12.0,0.,12.0
1979-02-28 16:12:18.940 ,1,1,0.,12.0,0.,12.0,0.,12.0,0.,12.0
1979-02-28 16:12:30.940 ,1,1,0.,12.0,0.,12.0,0.,12.0,0.,12.0
1979-02-28 16:12:42.940 ,0,0,0.,12.0,0.,12.0,0.,12.0,0.,12.0
1979-02-28 16:12:54.940 ,0,0,0.,12.0,0.,12.0,0.,12.0,0.,12.0
1979-02-28 16:13:06.940 ,3,1,1.,12.0,0.,12.0,0.,12.0,0.,12.0
1979-02-28 16:13:18.940 ,3,1,0.,12.0,0.,12.0,0.,12.0,0.,12.0
1979-02-28 16:13:30.940 ,4,1,0.,12.0,0.,12.0,0.,12.0,0.,12.0
1979-02-28 16:13:42.940 ,4,1,0.,12.0,0.,12.0,0.,12.0,0.,12.0
1979-02-28 16:13:54.940 ,5,1,0.,12.0,0.,12.0,0.,12.0,0.,12.0
1979-02-28 16:14:06.940 ,5,1,0.,12.0,0.,12.0,0.,12.0,0.,12.0
1979-02-28 16:14:18.940 ,6,1,0.,12.0,0.,12.0,0.,12.0,0.,12.0
1979-02-28 16:14:30.940 ,6,1,0.,12.0,0.,12.0,0.,12.0,0.,12.0
1979-02-28 16:14:42.940 ,7,1,0.,12.0,1.,12.0,0.,12.0,0.,12.0
1979-02-28 16:14:54.940 ,7,1,0.,12.0,0.,12.0,0.,12.0,0.,12.0
1979-02-28 16:15:06.940 ,7,1,0.,12.0,0.,12.0,0.,12.0,0.,12.0
1979-02-28 16:15:18.940 ,7,1,0.,12.0,0.,12.0,0.,12.0,0.,12.0
1979-02-28 16:15:30.940 ,6,1,0.,12.0,0.,12.0,0.,12.0,0.,12.0
1979-02-28 16:15:42.940 ,6,1,0.,12.0,0.,12.0,0.,12.0,0.,12.0
1979-02-28 16:15:54.940 ,5,1,0.,12.0,0.,12.0,0.,12.0,0.,12.0
1979-02-28 16:16:06.940 ,5,1,0.,12.0,0.,12.0,0.,12.0,0.,12.0
1979-02-28 16:16:18.940 ,4,1,0.,12.0,0.,12.0,0.,12.0,0.,12.0
1979-02-28 16:16:30.940 ,4,1,0.,12.0,0.,12.0,0.,12.0,0.,12.0
1979-02-28 16:16:42.940 ,3,1,0.,12.0,0.,12.0,0.,12.0,0.,12.0
1979-02-28 16:16:54.940 ,3,1,0.,12.0,0.,12.0,0.,12.0,0.,12.0
1979-02-28 16:17:06.940 ,2,1,0.,12.0,0.,12.0,0.,12.0,0.,12.0
1979-02-28 16:17:18.940 ,2,1,0.,12.0,0.,12.0,0.,12.0,0.,12.0
1979-02-28 16:17:30.940 ,1,1,0.,12.0,0.,12.0,0.,12.0,0.,12.0
1979-02-28 16:17:42.940 ,1,1,0.,12.0,0.,12.0,0.,12.0,0.,12.0
1979-02-28 16:17:54.940 ,0,1,0.,12.0,0.,12.0,0.,12.0,0.,12.0
1979-02-28 16:18:06.940 ,0,1,0.,12.0,0.,12.0,0.,12.0,0.,12.0
1979-02-28 16:18:18.940 ,0,1,0.,12.0,0.,12.0,0.,12.0,0.,12.0
1979-02-28 16:18:30.940 ,0,1,0.,12.0,0.,12.0,0.,12.0,0.,12.0
1979-02-28 16:18:42.940 ,1,1,0.,12.0,0.,12.0,0.,12.0,0.,12.0
1979-02-28 16:18:54.940 ,1,1,0.,12.0,0.,12.0,0.,12.0,0.,12.0
1979-02-28 16:19:06.940 ,2,1,0.,12.0,0.,12.0,0.,12.0,0.,12.0
1979-02-28 16:19:18.940 ,2,1,0.,12.0,0.,12.0,0.,12.0,0.,12.0
1979-02-28 16:19:30.940 ,3,1,0.,12.0,0.,12.0,0.,12.0,0.,12.0
1979-02-28 16:19:42.940 ,3,1,0.,12.0,0.,12.0,0.,12.0,0.,12.0
1979-02-28 16:19:54.940 ,4,1,0.,12.0,0.,12.0,0.,12.0,0.,12.0
1979-02-28 16:20:06.940 ,4,1,0.,12.0,0.,12.0,0.,12.0,0.,12.0
1979-02-28 16:20:18.940 ,5,1,0.,12.0,0.,12.0,0.,12.0,0.,12.0
1979-02-28 16:20:30.940 ,5,1,0.,12.0,0.,12.0,0.,12.0,0.,12.0
1979-02-28 16:20:42.940 ,6,1,0.,12.0,0.,12.0,0.,12.0,0.,12.0
1979-02-28 16:20:54.940 ,6,1,0.,12.0,0.,12.0,0.,12.0,0.,12.0
1979-02-28 16:21:06.940 ,7,1,0.,12.0,0.,12.0,0.,12.0,0.,12.0
1979-02-28 16:21:18.940 ,7,1,0.,12.0,0.,12.0,0.,12.0,0.,12.0
1979-02-28 16:21:30.940 ,7,1,0.,12.0,0.,12.0,0.,12.0,0.,12.0
1979-02-28 16:21:42.940 ,7,1,0.,12.0,0.,12.0,0.,12.0,0.,12.0
1979-02-28 16:21:54.940 ,6,1,0.,12.0,0.,12.0,0.,12.0,0.,12.0
1979-02-28 16:22:06.940 ,6,1,0.,12.0,0.,12.0,0.,12.0,0.,12.0
1979-02-28 16:22:18.940 ,5,1,0.,12.0,0.,12.0,0.,12.0,0.,12.0
1979-02-28 16:22:30.940 ,5,1,0.,12.0,0.,12.0,0.,12.0,0.,12.0
1979-02-28 16:22:42.940 ,4,1,0.,12.0,0.,12.0,0.,12.0,0.,12.0